| time (UTC) | temp F | wind direction | speed MPH | gust MPH | rain 1hr in | rain 24hr in | rain mn in | humidity % | barometer mb |
| 20260831114539 | 78 | 41 | 0.0 | 1.0 | 0.00 | 0.00 | 0.00 | 75 | 994.4 |
| 20260831113036 | 79 | 49 | 0.0 | 1.0 | 0.00 | 0.00 | 0.00 | 72 | 994.2 |
| 20260831111545 | 79 | 91 | 0.0 | 2.0 | 0.00 | 0.00 | 0.00 | 71 | 994.0 |
| 20260831110035 | 79 | 61 | 0.0 | 1.0 | 0.00 | 0.00 | 0.00 | 71 | 993.9 |
| 20260831104538 | 79 | 72 | 0.0 | 1.0 | 0.00 | 0.00 | 0.00 | 70 | 993.9 |
| 20260831103029 | 80 | 105 | 0.0 | 1.0 | 0.00 | 0.00 | 0.00 | 69 | 993.9 |
| 20260831101534 | 80 | 97 | 0.0 | 1.0 | 0.00 | 0.00 | 0.00 | 69 | 993.9 |
| 20260831100028 | 81 | 96 | 0.0 | 0.0 | 0.00 | 0.00 | 0.00 | 68 | 993.8 |
| 20260831094525 | 81 | 120 | 0.0 | 1.0 | 0.00 | 0.00 | 0.00 | 67 | 993.8 |
| 20260831093022 | 81 | 116 | 0.0 | 2.0 | 0.00 | 0.00 | 0.00 | 65 | 993.7 |
| 20260831091525 | 82 | 102 | 0.0 | 1.0 | 0.00 | 0.00 | 0.00 | 64 | 993.6 |
| 20260831090017 | 82 | 95 | 0.0 | 1.0 | 0.00 | 0.00 | 0.00 | 63 | 993.6 |
| 20260831084514 | 83 | 98 | 0.0 | 0.0 | 0.00 | 0.00 | 0.00 | 63 | 993.5 |
| 20260831083013 | 83 | 151 | 0.0 | 0.0 | 0.00 | 0.00 | 0.00 | 62 | 993.4 |
| 20260831081515 | 84 | 130 | 0.0 | 0.0 | 0.00 | 0.00 | 0.00 | 61 | 993.3 |
| 20260831080008 | 84 | 141 | 0.0 | 1.0 | 0.00 | 0.00 | 0.00 | 60 | 993.2 |
| 20260831074506 | 84 | 123 | 0.0 | 0.0 | 0.00 | 0.00 | 0.00 | 59 | 993.1 |
| 20260831073005 | 84 | 128 | 0.0 | 1.0 | 0.00 | 0.00 | 0.00 | 58 | 993.1 |
| 20260831071502 | 85 | 106 | 0.0 | 1.0 | 0.00 | 0.00 | 0.00 | 58 | 993.1 |
| 20260831064600 | 85 | 114 | 0.0 | 0.0 | 0.00 | 0.00 | 0.00 | 57 | 993.2 |
| 20260831063101 | 85 | 74 | 0.0 | 1.0 | 0.00 | 0.00 | 0.00 | 57 | 993.1 |
| 20260831061604 | 86 | 114 | 0.0 | 1.0 | 0.00 | 0.00 | 0.00 | 56 | 993.2 |
| 20260831060107 | 86 | 105 | 0.0 | 0.0 | 0.00 | 0.00 | 0.00 | 56 | 993.2 |
| 20260831054554 | 86 | 133 | 0.0 | 0.0 | 0.00 | 0.00 | 0.00 | 55 | 993.3 |
| 20260831053051 | 87 | 142 | 0.0 | 1.0 | 0.00 | 0.00 | 0.00 | 54 | 993.2 |
| 20260831051613 | 87 | 103 | 0.0 | 1.0 | 0.00 | 0.00 | 0.00 | 53 | 993.0 |
| 20260831050048 | 88 | 98 | 0.0 | 1.0 | 0.00 | 0.00 | 0.00 | 52 | 993.0 |
| 20260831044545 | 88 | 104 | 0.0 | 2.0 | 0.00 | 0.00 | 0.00 | 51 | 992.9 |
| 20260831043047 | 88 | 87 | 0.0 | 1.0 | 0.00 | 0.00 | 0.00 | 50 | 992.9 |
| 20260831041546 | 89 | 58 | 0.0 | 1.0 | 0.00 | 0.00 | 0.00 | 50 | 993.0 |
| 20260831040049 | 89 | 112 | 0.0 | 1.0 | 0.00 | 0.00 | 0.00 | 49 | 992.8 |
| 20260831034543 | 89 | 79 | 0.0 | 1.0 | 0.00 | 0.00 | 0.00 | 49 | 992.7 |
| 20260831033043 | 90 | 85 | 0.0 | 1.0 | 0.00 | 0.00 | 0.00 | 48 | 992.6 |
| 20260831031546 | 90 | 68 | 0.0 | 2.0 | 0.00 | 0.00 | 0.00 | 48 | 992.7 |
| 20260831030042 | 90 | 59 | 0.0 | 1.0 | 0.00 | 0.00 | 0.00 | 47 | 992.6 |
| 20260831024549 | 90 | 53 | 0.0 | 1.0 | 0.00 | 0.00 | 0.00 | 47 | 992.4 |
| 20260831023044 | 91 | 36 | 0.0 | 1.0 | 0.00 | 0.00 | 0.00 | 46 | 992.2 |
| 20260831021553 | 91 | 45 | 0.0 | 2.0 | 0.00 | 0.00 | 0.00 | 46 | 992.1 |
| 20260831020042 | 92 | 30 | 0.0 | 1.0 | 0.00 | 0.00 | 0.00 | 44 | 991.8 |
| 20260831014540 | 92 | 39 | 0.0 | 1.0 | 0.00 | 0.00 | 0.00 | 44 | 991.8 |
| 20260831013040 | 93 | 27 | 0.0 | 1.0 | 0.00 | 0.00 | 0.00 | 43 | 991.5 |
| 20260831011541 | 94 | 30 | 0.0 | 2.0 | 0.00 | 0.00 | 0.00 | 42 | 991.5 |
| 20260831010106 | 95 | 43 | 0.0 | 1.0 | 0.00 | 0.00 | 0.00 | 40 | 991.4 |
| 20260831004547 | 95 | 81 | 0.0 | 2.0 | 0.00 | 0.00 | 0.00 | 40 | 991.3 |
| 20260831003043 | 96 | 78 | 0.0 | 1.0 | 0.00 | 0.00 | 0.00 | 39 | 991.2 |
| 20260831001551 | 97 | 28 | 0.0 | 2.0 | 0.00 | 0.00 | 0.00 | 37 | 991.3 |
| 20260831000035 | 97 | 68 | 0.0 | 3.0 | 0.00 | 0.00 | 0.00 | 38 | 991.4 |
| 20260830234534 | 97 | 75 | 0.0 | 9.0 | 0.00 | 0.00 | 0.00 | 38 | 991.4 |
| 20260830233034 | 97 | 101 | 0.0 | 6.0 | 0.00 | 0.00 | 0.00 | 38 | 991.5 |
| 20260830231535 | 98 | 113 | 0.0 | 6.0 | 0.00 | 0.00 | 0.00 | 38 | 991.5 |
| 20260830230031 | 98 | 89 | 0.0 | 9.0 | 0.00 | 0.00 | 0.00 | 38 | 991.6 |
| 20260830224544 | 99 | 118 | 0.0 | 1.0 | 0.00 | 0.00 | 0.00 | 38 | 991.7 |
| 20260830223031 | 98 | 79 | 0.0 | 4.0 | 0.00 | 0.00 | 0.00 | 38 | 991.6 |
| 20260830221530 | 99 | 23 | 0.0 | 8.0 | 0.00 | 0.00 | 0.00 | 38 | 991.7 |
| 20260830220029 | 99 | 18 | 0.0 | 5.0 | 0.00 | 0.00 | 0.00 | 38 | 991.7 |
| 20260830214528 | 99 | 133 | 0.0 | 6.0 | 0.00 | 0.00 | 0.00 | 36 | 991.7 |
| 20260830213027 | 98 | 33 | 1.0 | 9.0 | 0.00 | 0.00 | 0.00 | 36 | 991.9 |
| 20260830211526 | 101 | 120 | 0.0 | 1.0 | 0.00 | 0.00 | 0.00 | 35 | 992.0 |
| 20260830210020 | 100 | 131 | 0.0 | 5.0 | 0.00 | 0.00 | 0.00 | 34 | 992.1 |
| 20260830204516 | 98 | 78 | 0.0 | 1.0 | 0.00 | 0.00 | 0.00 | 35 | 992.4 |
| 20260830203016 | 97 | 67 | 0.0 | 2.0 | 0.00 | 0.00 | 0.00 | 36 | 992.7 |
| 20260830201514 | 98 | 42 | 0.0 | 3.0 | 0.00 | 0.00 | 0.00 | 38 | 992.8 |
| 20260830200010 | 98 | 60 | 0.0 | 3.0 | 0.00 | 0.00 | 0.00 | 39 | 993.0 |
| 20260830194508 | 99 | 118 | 0.0 | 2.0 | 0.00 | 0.00 | 0.00 | 40 | 993.2 |
| 20260830193007 | 98 | 91 | 0.0 | 3.0 | 0.00 | 0.00 | 0.00 | 39 | 993.4 |
| 20260830191507 | 98 | 62 | 0.0 | 10.0 | 0.00 | 0.00 | 0.00 | 40 | 993.7 |
| 20260830190007 | 98 | 122 | 0.0 | 4.0 | 0.00 | 0.00 | 0.00 | 39 | 994.0 |
| 20260830184502 | 97 | 91 | 1.0 | 9.0 | 0.00 | 0.00 | 0.00 | 41 | 994.0 |
| 20260830183119 | 97 | 38 | 1.0 | 5.0 | 0.00 | 0.00 | 0.00 | 42 | 994.2 |
| 20260830181603 | 96 | 85 | 0.0 | 2.0 | 0.00 | 0.00 | 0.00 | 44 | 994.4 |
| 20260830180108 | 96 | 48 | 0.0 | 4.0 | 0.00 | 0.00 | 0.00 | 44 | 994.7 |
| 20260830174556 | 96 | 85 | 0.0 | 9.0 | 0.00 | 0.00 | 0.00 | 46 | 995.0 |
| 20260830173115 | 95 | 138 | 0.0 | 8.0 | 0.00 | 0.00 | 0.00 | 48 | 995.2 |
| 20260830171559 | 94 | 99 | 0.0 | 4.0 | 0.00 | 0.00 | 0.00 | 48 | 995.4 |
| 20260830170045 | 94 | 154 | 0.0 | 14.0 | 0.00 | 0.00 | 0.00 | 49 | 995.6 |
| 20260830164541 | 94 | 43 | 0.0 | 8.0 | 0.00 | 0.00 | 0.00 | 50 | 995.6 |
| 20260830163038 | 93 | 177 | 0.0 | 2.0 | 0.00 | 0.00 | 0.00 | 52 | 995.7 |
| 20260830161542 | 93 | 107 | 0.0 | 2.0 | 0.00 | 0.00 | 0.00 | 54 | 995.8 |
| 20260830160033 | 91 | 60 | 0.0 | 9.0 | 0.00 | 0.00 | 0.00 | 56 | 995.8 |
| 20260830154532 | 90 | 126 | 0.0 | 1.0 | 0.00 | 0.00 | 0.00 | 58 | 995.8 |
| 20260830153027 | 89 | 14 | 0.0 | 3.0 | 0.00 | 0.00 | 0.00 | 60 | 995.9 |
| 20260830151525 | 88 | 119 | 0.0 | 3.0 | 0.00 | 0.00 | 0.00 | 61 | 995.8 |
| 20260830150023 | 87 | 120 | 0.0 | 1.0 | 0.00 | 0.00 | 0.00 | 63 | 995.7 |
| 20260830144525 | 86 | 75 | 0.0 | 1.0 | 0.00 | 0.00 | 0.00 | 66 | 995.8 |
| 20260830143026 | 85 | 163 | 0.0 | 1.0 | 0.00 | 0.00 | 0.00 | 69 | 995.8 |
| 20260830141519 | 84 | 102 | 0.0 | 1.0 | 0.00 | 0.00 | 0.00 | 71 | 995.9 |
| 20260830140018 | 82 | 162 | 0.0 | 1.0 | 0.00 | 0.00 | 0.00 | 73 | 995.8 |
| 20260830134535 | 82 | 92 | 0.0 | 1.0 | 0.00 | 0.00 | 0.00 | 74 | 995.7 |
| 20260830133020 | 80 | 55 | 0.0 | 2.0 | 0.00 | 0.00 | 0.00 | 76 | 995.7 |
| 20260830131517 | 79 | 94 | 0.0 | 1.0 | 0.00 | 0.00 | 0.00 | 76 | 995.5 |
| 20260830130014 | 78 | 100 | 0.0 | 1.0 | 0.00 | 0.00 | 0.00 | 77 | 995.5 |
| 20260830124511 | 78 | 58 | 0.0 | 2.0 | 0.00 | 0.00 | 0.00 | 77 | 995.2 |
| 20260830123009 | 77 | 37 | 0.0 | 1.0 | 0.00 | 0.00 | 0.00 | 76 | 995.0 |
| 20260830121508 | 78 | 97 | 0.0 | 1.0 | 0.00 | 0.00 | 0.00 | 76 | 994.9 |
| 20260830120005 | 78 | 41 | 0.0 | 1.0 | 0.00 | 0.00 | 0.00 | 74 | 994.6 |